TimeMST,TemperatureF,Dew PointF,Humidity,Sea Level PressureIn,VisibilityMPH,Wind Direction,Wind SpeedMPH,Gust SpeedMPH,PrecipitationIn,Events,Conditions,WindDirDegrees,DateUTC
12:53 AM,24.1,15.1,69,30.18,10.0,Variable,3.5,-,N/A,,Clear,0,2013-12-16 07:53:00
1:53 AM,28.9,16.0,58,30.16,10.0,Calm,Calm,-,N/A,,Clear,0,2013-12-16 08:53:00
2:53 AM,26.1,15.1,63,30.18,10.0,NW,4.6,-,N/A,,Clear,320,2013-12-16 09:53:00
3:53 AM,28.0,15.1,58,30.16,10.0,Variable,3.5,-,N/A,,Clear,0,2013-12-16 10:53:00
4:53 AM,26.1,15.1,63,30.19,10.0,NW,8.1,-,N/A,,Clear,320,2013-12-16 11:53:00
5:53 AM,24.1,14.0,65,30.20,10.0,SSE,4.6,-,N/A,,Clear,160,2013-12-16 12:53:00
6:53 AM,30.9,14.0,50,30.21,10.0,SW,4.6,-,N/A,,Clear,230,2013-12-16 13:53:00
7:53 AM,30.9,14.0,50,30.26,10.0,WSW,6.9,-,N/A,,Clear,240,2013-12-16 14:53:00
8:53 AM,33.1,15.1,48,30.29,10.0,SW,5.8,-,N/A,,Clear,230,2013-12-16 15:53:00
9:53 AM,37.0,15.1,41,30.27,10.0,Calm,Calm,-,N/A,,Clear,0,2013-12-16 16:53:00
10:53 AM,37.9,18.0,45,30.23,10.0,WNW,3.5,-,N/A,,Clear,290,2013-12-16 17:53:00
11:53 AM,44.1,18.0,35,30.21,10.0,SW,5.8,-,N/A,,Clear,220,2013-12-16 18:53:00
12:53 PM,46.0,16.0,30,30.20,10.0,NW,5.8,-,N/A,,Clear,310,2013-12-16 19:53:00
1:53 PM,48.0,17.1,29,30.18,10.0,NNW,3.5,-,N/A,,Clear,330,2013-12-16 20:53:00
2:53 PM,48.0,16.0,28,30.19,10.0,Calm,Calm,-,N/A,,Clear,0,2013-12-16 21:53:00
3:53 PM,45.0,19.9,37,30.21,10.0,WSW,8.1,-,N/A,,Clear,250,2013-12-16 22:53:00
4:53 PM,41.0,19.0,41,30.26,10.0,East,3.5,-,N/A,,Clear,100,2013-12-16 23:53:00
5:53 PM,37.0,17.1,44,30.30,10.0,WSW,11.5,-,N/A,,Clear,250,2013-12-17 00:53:00
6:53 PM,36.0,16.0,44,30.27,10.0,WSW,10.4,-,N/A,,Clear,240,2013-12-17 01:53:00
7:53 PM,34.0,16.0,48,30.30,10.0,East,4.6,-,N/A,,Clear,90,2013-12-17 02:53:00
8:53 PM,33.1,16.0,50,30.30,10.0,SW,4.6,-,N/A,,Clear,230,2013-12-17 03:53:00
9:53 PM,33.1,15.1,48,30.31,10.0,Calm,Calm,-,N/A,,Clear,0,2013-12-17 04:53:00
10:53 PM,33.1,16.0,50,30.31,10.0,WSW,17.3,-,N/A,,Clear,240,2013-12-17 05:53:00
11:53 PM,32.0,15.1,50,30.30,10.0,SE,3.5,-,N/A,,Clear,140,2013-12-17 06:53:00